ECMWFFLT2_925_temp_021.txt.gz
Temp
30 30 30 30 29 26 27 27 25 26 29 27 23 21 23 22 22 22 23 23 26 28 30 33 33 32 33 33 33 33 33 33 33 32 32 32 31 31 30 30 30 29 29 29 29 28 28 28 27 27 26 26 25 25 25 24 24 24 23 23 23 23 23
29 30 30 30 30 29 26 24 26 29 30 28 25 22 22 22 21 22 22 22 24 24 26 31 34 33 33 33 33 33 33 33 33 33 32 32 32 31 31 30 30 29 29 29 29 29 29 28 28 27 26 26 26 25 25 25 24 24 24 23 23 23 23
28 30 30 28 29 31 29 27 30 29 25 24 24 22 22 22 22 22 22 22 23 23 25 29 32 32 34 34 33 33 33 33 33 33 33 32 32 31 31 30 30 30 29 30 30 30 29 29 28 27 27 26 26 26 26 25 25 25 24 24 24 23 23
28 29 28 25 26 29 29 29 30 29 26 24 23 23 23 22 22 22 22 22 23 25 29 31 32 33 34 34 33 33 33 34 34 34 34 33 31 31 31 31 31 30 30 30 30 30 30 29 28 28 28 27 27 26 26 26 26 25 24 24 24 23 23
27 26 27 27 27 27 27 26 26 27 27 26 25 24 24 23 22 22 22 22 23 28 32 34 34 34 34 34 34 33 33 34 34 34 34 33 32 31 31 31 31 31 31 31 31 30 30 30 29 29 29 28 28 27 27 26 26 25 25 25 24 24 24
24 26 29 30 30 30 28 27 26 26 26 25 23 23 23 24 22 22 22 22 24 29 32 33 34 35 35 35 34 34 34 34 34 34 34 34 33 32 32 32 32 32 31 31 32 31 30 30 30 29 29 29 28 28 28 27 27 26 26 25 24 24 24
25 28 30 30 30 31 31 30 29 30 28 25 22 21 22 23 23 23 23 21 25 31 32 32 34 35 35 35 34 34 34 34 34 34 34 34 33 32 32 32 32 32 31 31 32 31 30 30 30 30 30 29 29 29 28 28 27 27 27 26 25 24 24
26 29 29 29 29 30 29 29 31 31 29 28 26 25 24 23 22 23 23 21 25 31 32 32 33 33 34 35 33 33 34 34 34 33 33 33 32 32 32 32 32 32 32 31 31 30 30 30 30 30 30 29 29 29 29 28 28 28 27 27 26 25 24
23 25 26 27 27 28 27 27 29 29 30 30 30 27 25 23 23 23 23 21 25 30 30 30 31 31 32 33 33 33 33 33 33 32 32 31 31 31 31 31 31 32 31 31 30 30 29 29 30 30 29 29 29 29 29 29 29 28 28 27 26 25 25
21 22 22 22 23 24 24 24 25 27 28 29 28 25 23 22 23 23 23 22 26 31 31 30 31 31 32 33 34 32 32 31 31 31 30 30 30 30 31 31 31 31 31 30 30 29 29 29 30 29 29 29 29 29 29 29 29 29 28 28 27 26 26
21 20 20 20 21 21 22 23 24 25 25 26 27 24 22 23 23 22 24 25 25 29 32 33 33 32 32 34 35 34 33 32 31 30 30 29 29 29 30 30 30 30 30 30 30 29 29 30 30 29 29 30 30 29 29 29 29 29 28 28 27 27 26
20 20 20 21 21 21 21 22 23 24 24 24 24 23 24 25 23 21 25 27 25 27 32 34 34 33 33 34 36 35 34 33 31 30 30 29 29 30 30 29 29 29 29 29 29 29 29 30 30 30 30 30 29 29 29 29 29 29 28 28 27 27 26
20 20 21 21 21 21 21 21 22 23 23 23 23 23 24 26 23 22 26 28 25 28 32 33 34 35 34 35 35 33 32 33 32 30 30 31 31 31 31 30 29 29 29 29 29 29 29 30 30 30 30 30 29 29 29 29 29 29 28 27 27 27 26
20 20 21 21 21 21 21 21 22 22 23 23 23 24 25 26 24 25 27 27 27 30 32 33 34 35 34 34 32 31 33 35 34 32 32 32 32 32 31 31 29 29 29 29 29 29 29 29 30 30 30 29 29 29 29 29 29 29 28 27 27 27 27
20 21 21 21 21 21 21 21 22 23 23 23 24 24 25 25 24 26 27 26 27 30 31 31 33 33 32 32 32 33 34 34 33 33 33 34 34 32 32 31 30 29 29 28 28 29 29 29 29 30 30 29 30 30 30 29 29 29 28 28 27 27 27
20 21 21 21 21 21 21 22 23 23 23 24 24 25 26 25 25 26 25 24 27 30 30 30 31 31 31 31 32 33 34 32 31 32 34 35 35 34 32 30 29 28 29 28 28 28 29 29 29 29 29 29 30 30 30 30 29 29 29 28 28 27 27
19 20 20 21 21 21 21 22 23 24 25 25 25 26 27 28 27 26 25 26 29 31 31 31 32 32 31 31 32 33 33 32 31 31 33 34 34 34 31 28 28 28 29 29 29 29 30 30 30 30 30 30 30 30 30 30 30 29 29 29 28 27 27
19 20 20 21 21 20 21 22 23 23 24 24 24 24 25 27 28 28 28 29 31 31 31 31 32 32 33 33 32 32 32 31 31 31 32 32 31 30 29 28 28 28 28 29 29 29 30 30 30 30 30 30 29 29 29 29 29 29 29 29 28 27 27
19 20 20 20 20 21 22 23 23 23 23 23 22 23 24 25 26 27 28 29 30 31 31 31 31 32 33 31 30 29 28 27 29 30 30 30 28 27 27 27 27 26 26 27 28 29 30 30 30 30 30 30 30 30 29 29 29 29 28 28 28 27 27
18 19 19 19 20 21 23 23 23 22 22 22 22 23 25 24 23 23 25 26 28 29 30 31 31 31 30 29 27 26 26 25 26 28 29 28 27 26 26 25 25 24 25 25 26 28 29 30 30 30 30 30 30 30 30 29 29 28 28 28 28 27 27
18 19 19 20 20 21 22 23 22 22 22 22 21 22 23 22 21 21 22 23 24 25 27 28 28 28 28 29 28 26 25 25 24 25 26 26 25 25 25 24 24 24 24 24 25 26 27 29 30 30 30 30 30 30 30 30 29 28 28 28 27 27 27
18 19 19 20 20 20 21 22 22 21 21 21 21 21 22 21 20 20 20 21 22 23 24 25 26 26 27 29 30 29 26 24 24 24 24 24 24 24 23 23 24 24 24 24 24 25 27 29 30 30 30 30 30 30 30 29 29 28 28 28 27 27 27
18 18 18 19 20 21 22 22 21 21 21 21 21 21 22 20 19 20 20 20 21 21 22 23 24 26 28 30 32 30 26 24 24 23 23 23 23 23 23 23 24 24 23 24 25 26 28 29 29 29 29 30 29 29 29 29 29 28 28 28 28 27 27
16 17 18 19 20 21 22 21 21 22 21 21 21 22 21 20 19 19 20 20 20 20 21 21 23 26 28 29 28 26 24 23 23 22 22 22 22 23 24 23 23 23 23 24 26 27 26 26 27 28 28 29 29 28 28 29 29 29 28 28 28 27 27
15 16 17 18 20 21 22 22 22 22 22 21 21 21 20 19 19 19 19 19 20 19 19 21 23 24 24 23 23 22 22 22 22 21 22 22 21 22 22 22 23 23 23 23 24 24 23 24 26 27 28 28 28 28 28 28 29 29 28 28 28 27 27
15 16 16 17 18 21 22 22 22 22 22 22 21 21 20 19 20 20 19 19 19 19 18 20 22 22 21 21 22 22 21 21 21 20 21 21 21 21 21 22 23 23 23 22 22 22 22 23 25 26 27 27 27 28 28 28 28 28 28 28 28 27 27
15 15 15 15 17 19 21 21 21 22 22 21 21 20 20 20 20 20 19 20 19 18 18 19 20 21 20 20 20 20 20 20 20 20 20 20 20 21 21 22 22 23 22 21 21 21 21 22 23 25 27 27 27 27 26 25 26 27 27 27 27 27 27
15 15 15 16 17 18 18 19 20 21 21 20 19 19 20 20 20 19 19 19 19 18 18 18 19 20 19 19 19 19 19 19 19 19 20 20 20 20 21 21 22 22 21 21 20 20 20 20 21 23 24 24 24 24 23 22 24 26 26 27 27 27 27
14 14 15 16 17 17 17 18 18 19 20 20 19 19 19 19 19 19 18 18 18 18 18 18 18 19 19 19 19 19 19 19 19 20 20 20 20 21 21 21 21 21 21 21 20 20 20 20 20 20 21 22 21 21 20 21 23 24 25 26 26 26 26
13 14 15 16 17 17 18 18 19 19 19 19 19 19 19 19 18 18 18 18 18 18 18 19 18 18 18 19 18 18 19 19 19 19 19 20 20 20 21 21 21 21 21 21 21 21 20 20 20 20 20 20 20 20 20 21 22 23 24 24 25 25 25
12 13 15 17 17 17 16 17 17 18 19 19 18 19 19 18 18 18 18 18 18 18 18 19 19 19 19 19 18 18 18 18 19 19 19 19 20 20 21 21 21 21 21 21 21 21 21 20 20 20 20 20 20 20 20 21 22 22 23 23 24 24 24
12 12 14 15 15 15 15 15 16 17 18 18 18 18 18 18 18 18 19 18 18 18 18 18 19 19 19 18 18 18 18 18 18 19 19 19 19 20 21 21 21 21 21 21 21 21 21 20 20 20 20 20 21 21 21 21 22 22 22 22 23 23 23
11 12 13 14 14 15 16 16 17 18 18 18 18 18 18 19 18 19 19 19 18 18 18 18 18 18 18 18 18 18 18 18 18 18 18 19 19 20 20 21 21 21 20 20 20 20 20 20 20 20 21 21 21 21 21 21 22 21 21 22 22 22 22
11 12 13 14 14 15 16 16 17 17 18 18 18 18 18 18 18 18 18 19 19 19 18 18 18 18 17 18 18 18 18 17 17 18 18 19 19 19 20 21 21 20 20 20 20 20 20 20 20 20 20 21 21 21 21 21 21 21 21 22 22 22 22
12 13 14 13 13 13 14 15 16 16 17 18 18 18 17 17 17 18 18 18 18 18 18 18 18 17 17 17 18 18 18 18 18 18 18 19 19 19 20 20 20 20 20 20 20 20 20 20 20 20 20 20 21 21 21 21 21 21 21 21 21 21 21
12 13 13 13 12 12 13 14 15 16 16 17 18 18 17 17 17 17 18 18 17 18 18 18 18 17 17 17 17 18 18 18 18 18 18 18 19 19 19 19 19 20 20 20 21 21 21 20 20 20 19 20 20 21 21 21 21 21 21 21 21 21 21
11 12 13 13 12 13 14 14 15 15 15 16 18 18 17 17 17 17 17 17 17 17 17 18 18 18 18 17 18 18 19 18 18 18 18 18 18 18 18 18 18 19 20 20 20 20 20 20 20 19 19 19 19 20 21 21 21 21 21 21 21 21 20

ECMWFFLT2_925_temp_024.txt.gz
Temp
33 32 32 34 31 28 30 29 26 28 32 30 24 22 24 23 22 24 24 24 28 31 33 36 37 37 38 38 38 39 39 39 39 39 38 38 37 36 35 34 33 33 32 32 32 31 31 30 30 29 29 28 28 28 27 27 26 26 25 25 25 25 25
32 33 33 34 33 32 30 26 28 32 33 31 26 23 23 23 22 23 24 23 25 25 27 34 37 36 37 38 38 39 39 39 38 38 38 38 38 37 36 35 34 33 33 32 32 32 32 31 30 30 29 28 28 28 28 27 26 26 26 25 25 25 25
32 34 32 31 32 35 32 30 33 32 26 25 25 23 22 23 22 23 23 24 24 23 26 32 35 36 37 38 38 38 39 39 38 38 38 37 37 37 36 35 34 34 33 33 33 33 32 32 31 30 29 29 28 28 28 28 27 27 26 26 26 25 25
32 32 30 27 28 32 33 33 34 32 28 25 25 24 24 23 22 23 23 23 24 26 31 34 35 37 38 38 38 38 38 39 39 39 39 38 37 37 37 36 35 34 34 34 34 33 33 33 31 31 30 29 29 29 28 28 28 27 27 27 26 26 26
30 28 29 29 29 30 30 28 28 29 29 28 27 26 25 24 23 23 23 23 23 30 37 37 36 37 37 38 38 38 38 39 39 39 40 39 38 37 37 36 36 35 34 35 35 34 34 34 32 32 31 31 30 30 29 29 28 28 28 27 27 26 26
26 27 32 33 33 32 31 29 28 28 28 27 25 24 25 25 23 23 24 22 24 33 38 37 37 38 38 38 38 38 39 39 40 40 40 40 38 37 37 37 37 36 35 35 36 35 34 34 34 33 32 32 31 31 30 30 29 29 29 28 27 27 26
28 31 34 33 33 35 33 32 32 32 30 26 23 22 23 24 24 24 24 22 26 35 38 36 38 38 38 39 38 38 39 39 40 40 40 40 38 37 37 37 37 37 36 36 36 35 34 34 34 33 33 33 32 32 31 31 30 30 30 29 28 27 26
31 33 34 34 34 34 32 32 33 33 31 30 28 27 26 25 23 24 24 22 26 35 37 36 37 38 38 39 39 39 39 39 40 40 40 39 37 36 37 37 37 37 36 36 35 34 34 34 34 34 33 33 33 32 32 32 31 31 31 30 29 28 27
25 26 28 29 31 32 31 32 34 33 33 33 31 30 28 25 23 24 24 22 26 34 36 35 37 38 38 38 39 39 39 39 39 39 38 37 35 35 36 36 36 36 36 35 34 34 34 33 33 34 33 33 33 33 33 33 32 32 31 31 30 29 28
22 22 23 24 26 29 30 32 33 33 33 33 30 27 25 23 23 24 24 23 27 34 36 35 36 37 37 38 39 39 39 39 38 38 37 35 34 34 34 35 35 35 35 35 34 33 33 33 33 33 33 33 33 33 33 33 33 32 31 31 31 29 29
23 22 23 25 28 28 27 29 31 32 33 33 31 26 23 24 24 23 25 26 27 31 34 35 36 37 37 37 38 38 39 38 37 37 36 35 35 34 34 34 34 34 34 34 33 32 33 33 33 33 33 33 33 33 33 33 33 33 32 31 31 30 29
23 24 24 26 27 27 27 28 29 30 32 32 29 26 25 27 24 22 27 29 26 29 35 36 35 36 37 37 37 38 38 37 37 37 36 36 36 35 34 34 33 33 33 33 33 32 33 34 33 33 33 33 33 33 33 33 33 33 32 31 31 30 30
24 25 25 26 26 27 27 28 28 29 30 30 27 27 29 30 25 23 28 29 27 31 35 35 35 36 36 36 37 38 38 37 37 37 37 37 39 38 36 34 33 33 32 32 32 32 33 34 33 33 33 33 33 33 32 33 33 33 32 31 31 30 30
23 25 25 26 26 25 26 27 28 28 29 29 28 28 31 30 27 28 30 29 29 32 34 35 36 36 36 36 37 37 37 37 37 37 37 38 39 39 39 36 34 33 33 32 32 32 32 33 33 33 33 33 33 33 33 32 32 33 32 31 31 30 30
23 24 25 25 25 25 25 25 27 28 28 28 28 28 30 29 27 29 30 27 28 32 34 34 35 35 35 35 35 36 36 36 36 37 37 38 38 38 39 38 36 34 33 33 32 32 32 32 33 33 33 33 33 33 33 33 32 33 32 31 31 30 30
22 23 24 24 25 25 24 24 26 26 26 27 28 28 29 28 27 28 27 25 28 32 34 34 34 34 34 34 35 35 35 36 36 36 37 37 38 38 38 38 36 35 34 33 32 32 33 33 33 33 33 33 33 33 33 33 33 32 32 32 31 30 30
21 23 24 24 24 23 22 24 26 27 27 28 28 29 30 30 29 27 26 27 31 33 33 33 34 34 34 34 35 35 35 36 36 36 36 37 37 38 38 37 36 35 35 35 34 33 34 34 34 33 33 33 33 33 33 33 33 33 32 32 31 30 30
21 23 23 23 22 21 22 26 29 29 29 28 28 29 30 31 31 30 30 31 33 33 33 33 33 33 34 34 35 35 36 35 35 35 36 36 36 37 37 37 37 36 35 34 34 34 34 35 35 34 34 33 33 33 33 33 33 32 32 32 31 30 29
21 22 22 21 21 22 25 27 28 28 29 29 29 29 30 30 30 31 31 31 32 32 32 33 33 33 34 34 35 35 35 35 35 35 35 35 36 36 36 36 36 35 33 32 33 34 34 34 35 34 34 34 33 33 33 33 33 32 32 32 31 30 29
21 21 21 21 21 23 26 27 27 27 28 28 27 26 28 29 29 29 29 30 30 31 31 31 32 32 33 33 34 34 34 35 35 35 35 36 36 35 35 34 33 32 31 31 32 32 33 33 34 34 34 34 34 34 33 33 32 32 31 31 31 30 29
21 21 21 22 22 23 24 25 26 27 27 27 26 25 27 28 27 27 27 28 28 29 29 30 30 30 30 31 33 34 35 35 35 35 35 35 34 33 32 32 31 30 29 30 30 30 31 32 33 34 34 34 34 34 34 33 32 32 31 31 31 30 29
21 21 21 21 21 21 23 25 26 27 26 27 26 25 26 27 26 25 26 27 27 28 28 28 28 28 29 31 33 34 35 35 35 34 34 33 32 31 30 30 30 30 29 29 29 29 30 31 32 33 34 34 34 33 34 33 32 31 31 31 30 30 30
21 20 20 21 21 21 24 26 26 26 26 27 26 24 24 25 26 25 25 26 26 27 26 26 26 27 29 32 33 31 30 31 32 31 31 30 30 30 30 29 29 29 28 28 28 29 30 31 32 32 33 33 33 33 33 33 32 32 31 31 31 30 30
20 20 20 21 22 23 24 25 26 26 26 26 25 22 22 24 25 25 25 26 26 26 25 25 25 26 29 32 31 29 28 29 29 28 28 28 28 28 29 29 28 28 27 27 29 31 31 30 31 31 32 32 32 32 32 33 33 32 31 31 31 31 30
19 19 20 21 22 24 25 25 26 26 26 25 23 21 23 24 24 24 25 25 25 25 25 24 25 26 27 28 28 28 28 28 28 27 27 27 27 27 28 27 26 27 28 28 29 30 29 28 29 30 31 32 32 31 31 32 32 32 32 31 31 30 30
19 20 20 20 21 24 24 25 26 26 25 23 21 22 23 24 24 25 25 25 25 25 24 24 24 24 25 25 26 27 27 26 26 26 26 26 27 27 26 26 26 27 28 27 27 28 28 28 29 30 30 31 31 31 31 31 32 32 32 31 30 30 30
19 19 19 19 20 22 22 23 24 25 23 21 21 22 24 24 25 25 25 24 24 24 23 23 23 23 24 25 25 25 25 25 25 25 25 25 26 26 26 26 26 27 27 26 26 27 27 28 29 30 30 30 30 30 30 30 30 31 31 31 30 29 29
18 18 19 19 19 20 21 21 21 22 21 21 21 21 23 24 25 24 24 24 24 23 22 22 22 22 23 23 24 24 24 25 25 25 25 25 25 26 26 25 25 25 25 25 25 26 26 26 27 29 30 29 29 29 28 27 28 29 29 29 29 29 29
16 17 19 19 18 19 21 21 21 20 20 21 21 20 21 23 24 24 24 24 23 22 21 21 21 22 22 22 23 23 23 24 24 24 24 24 24 25 25 24 24 24 25 25 25 25 25 24 25 26 27 27 27 26 25 25 27 28 28 28 29 29 29
16 17 18 18 18 19 20 21 20 20 20 20 20 19 20 21 22 23 23 23 22 21 20 20 21 21 22 22 22 22 22 23 23 23 23 24 24 25 25 24 24 25 25 24 24 24 24 24 24 24 25 25 25 25 24 25 26 26 27 28 28 28 28
15 16 18 18 18 19 19 19 19 20 20 20 20 20 20 20 21 21 22 22 21 21 20 20 20 21 21 21 21 22 21 21 22 23 23 23 23 24 24 24 24 24 25 24 24 24 23 24 24 24 24 24 24 24 25 25 25 26 27 27 27 28 28
15 16 17 18 17 18 18 19 19 20 20 21 21 21 20 20 21 21 22 22 22 21 21 20 20 20 20 20 20 21 21 20 21 22 22 22 23 24 24 24 23 24 24 24 24 24 23 23 24 24 24 24 24 24 25 25 25 26 26 26 27 27 27
15 16 17 17 17 18 19 19 20 20 19 19 20 20 19 19 20 21 22 22 22 22 20 20 20 19 19 19 20 20 20 20 20 21 21 22 23 23 23 23 23 23 23 23 23 23 23 23 23 23 23 24 24 24 25 25 25 25 26 26 26 26 27
15 16 17 17 17 17 19 19 18 18 18 18 18 18 19 18 19 20 21 22 22 22 21 20 20 19 19 19 20 20 20 19 20 20 21 22 23 23 23 23 23 22 22 22 23 23 23 23 23 23 24 24 24 24 24 25 25 25 26 26 26 27 27
15 17 17 17 16 16 17 17 17 17 17 17 17 17 18 17 18 19 20 20 21 22 21 21 20 20 19 20 20 20 20 19 20 20 20 21 22 22 23 23 23 23 23 23 23 23 22 22 23 23 24 24 25 25 24 24 25 25 25 26 26 26 26
15 16 16 16 15 15 16 16 16 17 17 16 16 17 18 17 17 18 19 19 20 22 21 21 21 21 21 21 21 20 20 20 20 20 20 20 20 21 22 22 23 23 23 23 23 23 23 22 23 23 23 24 24 24 24 24 24 24 25 25 26 26 25
15 15 15 15 15 15 16 16 16 16 16 16 16 16 17 18 17 17 18 19 20 21 21 21 21 22 22 21 21 20 20 20 20 20 20 20 20 20 20 21 21 22 22 22 22 22 22 22 22 23 23 23 23 24 24 24 24 24 24 24 25 25 25

ECMWFFLT2_925_temp_030.txt.gz
Temp
38 37 36 39 35 31 33 32 28 30 36 32 25 23 25 24 23 24 24 25 29 33 36 40 41 40 41 41 41 42 41 40 39 37 37 38 38 36 34 34 33 33 31 29 29 31 32 32 32 32 31 30 30 29 28 27 27 26 26 26 26 26 26
37 38 36 38 38 36 33 28 30 35 37 34 28 24 24 24 23 24 25 24 26 26 29 37 41 40 41 41 41 41 42 41 39 38 37 38 39 38 36 35 34 33 32 30 30 31 32 33 32 32 31 31 30 29 28 27 27 27 26 26 26 26 26
36 39 36 33 36 39 36 33 36 35 28 26 27 24 23 23 23 24 24 24 25 24 27 34 38 39 40 40 41 41 41 41 40 39 38 38 39 39 37 36 35 35 34 33 33 34 34 33 32 32 32 31 30 30 28 28 27 27 27 27 27 26 26
36 36 33 28 30 36 38 37 38 35 30 27 26 25 25 23 23 24 24 24 25 28 33 37 38 40 40 40 41 41 41 42 42 40 38 38 39 39 38 36 36 36 35 35 35 35 35 34 33 33 32 32 31 30 29 28 28 27 27 27 27 27 26
34 31 32 31 30 33 33 31 31 31 31 31 29 28 26 25 23 23 24 23 24 33 41 41 39 40 40 39 40 41 41 42 42 40 39 39 39 39 38 38 37 37 37 36 36 36 35 35 34 33 33 32 32 31 30 29 28 28 27 27 27 27 27
28 30 35 36 35 35 34 31 30 30 30 28 26 25 26 26 24 23 24 23 25 36 43 41 41 41 40 40 41 41 41 42 42 41 40 39 39 39 39 39 38 38 37 37 37 36 35 34 34 34 33 33 32 32 31 30 29 29 28 28 28 27 27
31 35 38 36 36 38 37 35 35 36 33 28 23 23 24 25 25 25 25 23 27 38 43 41 42 42 40 41 41 41 41 41 42 42 41 39 38 39 40 39 39 38 37 37 36 34 33 34 35 34 34 33 33 32 32 31 30 30 29 29 28 28 28
34 37 38 37 38 38 35 35 37 37 35 32 30 28 28 26 24 25 25 22 27 37 41 41 41 41 41 41 41 41 41 41 42 42 42 40 39 39 40 39 39 38 36 36 35 34 33 34 35 35 34 34 33 33 32 32 31 30 30 30 29 28 28
27 29 31 32 33 35 34 35 37 37 37 37 34 32 31 26 24 25 25 22 27 36 40 40 40 41 41 41 41 41 41 41 42 41 41 40 39 40 41 39 37 37 36 35 34 33 33 34 35 35 34 34 34 33 33 33 32 31 31 31 30 29 29
23 24 24 26 28 32 34 35 36 36 37 36 32 29 26 24 24 25 24 23 28 36 39 38 39 40 40 41 41 41 41 41 40 39 39 39 39 39 40 39 37 36 35 34 34 34 34 35 36 35 34 34 34 34 34 33 33 33 32 32 31 30 29
25 24 26 31 33 30 29 32 34 35 37 37 34 28 24 25 25 24 26 27 28 32 37 38 39 40 40 41 41 40 39 39 38 37 37 38 38 38 39 38 37 36 35 34 34 34 35 36 36 35 35 35 35 34 34 34 34 34 33 32 32 31 30
29 29 30 33 34 30 29 31 33 34 36 37 33 27 27 30 26 22 29 32 27 30 38 39 39 40 40 40 40 39 38 38 38 38 37 38 38 38 38 37 37 37 36 36 35 35 35 36 36 36 36 35 35 35 34 34 34 34 34 33 33 32 31
31 33 33 33 33 32 33 33 33 34 35 34 31 30 33 33 27 24 31 33 30 34 39 39 39 40 40 40 41 40 38 39 39 38 38 39 38 38 38 37 37 37 36 36 35 35 36 36 36 36 36 35 35 35 35 35 35 35 35 34 33 33 32
29 32 33 34 33 31 31 33 35 36 35 35 34 33 37 36 31 32 35 33 33 37 39 39 40 40 39 39 40 38 38 38 39 39 40 39 39 38 38 37 37 36 36 36 35 35 36 36 36 36 36 36 35 35 35 35 35 35 35 34 34 33 32
26 30 32 33 32 30 29 30 35 37 36 35 35 35 37 35 32 36 36 32 33 38 38 38 38 38 38 38 38 37 38 38 39 39 40 40 39 39 37 37 36 36 36 35 35 35 35 35 35 36 36 36 36 36 36 35 35 35 35 35 34 33 33
23 28 30 31 32 31 28 27 32 35 33 33 34 35 37 35 32 33 32 29 32 37 37 36 37 37 37 36 37 37 38 38 38 39 39 39 39 39 38 37 36 35 35 35 34 35 35 35 36 36 35 36 36 36 36 36 36 35 35 35 34 33 33
22 26 29 30 29 26 24 26 32 34 34 35 36 36 38 38 36 33 30 31 36 37 37 37 37 36 36 36 37 37 37 37 37 37 38 38 38 39 38 37 37 36 36 35 34 35 35 35 36 36 36 36 36 36 36 36 36 36 36 36 35 34 33
22 25 28 28 25 22 24 31 35 34 34 35 35 35 37 38 38 37 35 36 38 36 35 37 36 36 37 37 37 37 36 37 37 37 38 38 38 38 38 39 38 37 36 36 35 36 37 36 36 36 36 36 36 36 36 36 36 36 36 36 35 34 33
22 25 25 24 22 23 29 34 35 35 35 35 34 36 38 39 38 38 38 37 37 36 36 37 36 36 37 37 36 37 37 37 37 37 37 38 38 38 38 38 36 35 35 36 36 36 36 37 37 37 37 36 36 36 36 36 36 36 35 35 35 34 33
23 23 23 22 23 28 32 33 33 34 35 35 32 32 36 38 38 37 36 36 37 36 36 36 36 36 36 36 36 36 36 37 37 37 37 37 37 37 37 35 34 34 34 35 35 35 35 35 36 38 38 37 37 36 36 36 36 35 35 35 35 34 33
23 22 22 23 24 27 29 31 33 35 35 34 32 29 32 37 37 35 35 36 36 36 36 36 36 35 35 34 34 35 36 37 36 36 36 35 34 35 35 34 34 33 33 33 33 33 33 34 35 36 37 38 38 37 37 36 36 35 34 34 34 34 33
23 22 22 23 22 23 26 29 33 35 34 34 34 30 29 33 35 35 36 35 34 35 35 35 34 33 33 33 33 35 35 35 34 34 33 33 33 34 34 34 33 32 31 32 32 32 33 33 34 35 35 36 37 37 37 36 36 35 35 34 34 34 33
22 22 21 22 22 23 27 31 33 34 33 33 33 29 26 28 30 32 34 34 33 33 33 34 33 32 31 32 32 33 33 33 33 32 32 32 32 33 33 32 31 31 31 31 31 32 33 32 32 34 34 34 35 35 35 36 36 35 34 34 34 33 33
21 21 21 22 23 23 25 29 32 33 33 32 29 24 22 24 27 29 31 33 33 32 32 32 31 31 31 31 31 31 31 32 32 31 31 31 31 32 33 31 30 31 31 31 31 32 32 31 31 32 33 33 34 34 34 35 36 36 35 34 34 34 33
21 21 21 22 23 22 23 27 29 31 31 30 25 21 21 24 26 28 29 30 30 30 30 30 30 30 30 29 29 30 30 30 30 30 31 31 31 31 32 31 30 31 31 31 31 31 31 30 31 32 31 32 32 33 33 34 35 36 35 35 34 34 33
21 22 21 22 22 22 23 26 26 26 27 24 21 21 23 25 25 26 27 27 27 27 28 28 28 28 28 29 29 29 29 29 29 29 30 30 30 30 31 31 30 30 30 30 30 30 30 30 30 31 31 31 32 32 33 33 34 35 35 35 34 33 33
21 21 21 22 21 21 24 25 23 23 23 21 21 22 23 24 25 24 25 25 25 25 26 27 26 27 27 28 28 28 28 29 29 29 28 28 29 29 30 31 30 29 29 29 29 29 29 29 29 29 29 31 32 32 32 33 34 34 35 34 34 33 33
21 20 21 20 19 20 24 24 22 22 22 23 23 22 21 23 25 24 24 24 24 24 25 26 26 26 26 26 27 27 27 28 28 28 27 27 28 28 29 30 29 29 29 29 28 29 28 28 28 28 28 30 32 31 31 31 32 33 34 34 33 33 32
20 20 20 19 19 21 24 23 22 23 23 24 25 23 21 22 24 23 23 23 23 24 24 25 26 26 25 26 26 26 26 26 27 27 26 27 28 28 28 29 28 28 29 29 28 28 28 28 28 27 28 29 30 29 28 29 29 30 32 33 33 32 32
20 20 21 21 21 22 23 22 22 23 23 24 24 23 21 21 22 23 23 23 23 23 23 23 24 25 25 25 25 25 25 25 25 26 26 26 27 27 28 28 27 27 28 28 28 27 27 27 28 28 28 28 28 28 28 28 29 29 30 31 32 32 31
19 20 21 22 22 22 23 23 23 22 23 24 23 22 22 21 22 23 23 22 23 23 23 23 22 23 24 25 24 24 24 24 25 25 25 25 26 26 27 27 26 27 27 27 27 27 27 26 27 27 27 27 28 28 28 28 28 28 29 30 31 31 31
19 20 21 22 22 21 22 23 22 22 23 23 23 22 22 22 22 22 22 22 22 23 23 22 22 22 23 24 24 24 24 24 24 24 24 24 25 26 26 26 26 26 26 27 27 26 26 26 26 27 27 27 27 28 28 28 28 28 29 29 30 30 30
19 20 21 22 21 21 22 22 22 22 22 22 22 21 22 22 22 22 22 22 22 22 22 22 22 22 22 23 23 24 24 24 24 23 24 24 25 26 26 26 26 26 26 26 26 26 26 26 26 27 27 27 28 28 28 28 28 28 28 29 29 30 30
18 20 21 21 21 21 22 22 23 22 22 21 22 21 21 21 21 21 21 21 22 22 22 22 22 22 22 22 22 23 23 24 23 23 23 24 24 25 26 26 26 25 25 25 26 25 25 26 26 27 27 27 28 28 27 28 28 28 28 29 29 29 29
18 20 21 21 20 20 21 22 22 22 22 21 21 21 21 20 21 21 21 21 21 21 21 22 22 22 22 22 22 22 23 24 24 24 23 23 24 25 26 26 26 26 25 25 25 25 26 26 26 27 28 28 28 28 28 28 28 28 28 29 29 28 28
19 19 20 20 20 20 20 21 21 22 21 21 20 20 20 20 20 20 20 20 20 20 20 21 22 22 22 22 22 22 22 23 24 24 23 24 24 25 25 25 25 25 25 25 25 25 26 26 27 27 28 28 28 28 27 27 27 26 27 28 29 28 27
18 19 19 19 19 19 20 20 20 20 21 20 20 20 20 20 20 20 20 20 20 20 20 21 21 22 22 22 22 22 22 23 23 23 23 23 24 24 25 25 24 25 25 25 25 25 25 25 26 26 27 27 27 27 26 26 26 25 25 27 28 28 27

ECMWFFLT2_925_temp_033.txt.gz
Temp
36 35 35 38 34 30 31 31 27 29 34 31 24 23 24 24 23 23 24 24 28 31 34 38 39 38 39 39 39 38 36 35 35 34 34 34 33 33 33 32 32 31 30 30 30 30 30 29 29 29 29 29 28 27 27 26 26 26 25 25 25 25 25
35 36 36 37 37 35 31 27 29 34 35 33 28 23 23 23 22 23 24 23 25 25 27 35 38 37 38 39 39 39 37 35 35 35 34 34 34 33 33 33 32 31 31 30 30 30 30 30 29 30 29 29 28 28 27 26 26 26 25 25 25 25 25
34 37 35 33 36 38 34 31 34 33 27 26 26 23 23 23 22 23 23 24 24 23 26 32 36 36 38 38 39 39 38 36 36 35 34 34 34 33 33 33 32 31 31 30 30 30 30 30 30 30 30 29 29 28 27 27 26 26 26 25 25 25 25
35 36 33 28 30 35 36 35 36 34 29 26 25 25 24 23 22 23 23 23 24 26 31 34 36 37 38 38 38 39 38 37 36 36 35 34 34 34 33 33 32 32 31 31 31 31 31 30 30 30 30 29 29 28 27 27 26 26 26 25 25 25 25
33 30 32 30 30 32 32 30 29 30 30 29 28 27 25 24 23 23 24 23 24 31 37 37 37 38 38 39 38 38 38 37 36 36 35 35 34 34 34 33 33 32 32 31 31 31 31 31 31 30 30 30 29 29 28 27 27 26 26 26 25 25 25
27 29 35 36 34 34 33 30 29 29 29 27 25 25 25 25 24 23 24 22 24 34 39 38 38 39 38 39 39 38 39 37 36 36 36 35 34 34 34 33 33 32 32 32 31 31 31 31 31 31 31 30 30 29 28 28 27 27 26 26 26 26 25
30 34 37 36 35 37 36 34 34 34 32 27 23 22 24 25 24 25 25 22 26 36 39 37 39 39 38 40 39 39 39 38 36 36 36 36 35 34 34 34 33 33 32 32 31 31 31 31 31 31 31 31 30 30 29 28 28 27 27 26 26 26 26
31 35 37 37 37 37 34 34 35 35 33 31 28 27 27 25 23 24 24 22 27 36 38 37 39 39 39 40 39 39 39 38 37 36 36 36 35 34 35 34 34 33 32 32 31 31 31 31 31 31 31 31 31 30 30 29 28 28 27 27 26 26 26
25 28 30 31 33 34 33 33 35 35 35 35 33 31 29 26 23 24 24 22 26 35 39 38 39 39 39 40 40 40 39 38 36 36 37 36 35 34 35 35 34 34 33 32 32 31 31 31 31 31 31 32 31 31 30 29 29 28 28 27 27 26 26
22 23 24 25 28 31 32 34 35 35 35 34 31 28 25 24 24 25 24 23 27 36 39 39 39 39 39 39 40 40 39 37 36 37 36 36 35 34 35 35 34 34 34 33 32 32 31 31 31 31 31 32 32 32 31 30 29 28 28 28 27 27 27
23 23 25 30 32 29 28 31 33 34 35 35 32 27 23 24 25 24 25 27 28 32 37 38 39 40 38 37 37 37 37 37 37 37 36 36 35 35 35 35 34 34 34 33 33 32 31 32 32 31 31 32 32 32 32 31 30 29 28 28 28 27 27
25 27 28 33 34 30 28 30 31 33 35 35 31 26 26 29 25 22 28 31 27 30 37 38 38 38 36 35 36 35 35 36 37 36 36 36 35 35 35 35 34 34 33 32 32 32 31 32 32 32 32 32 32 32 32 32 31 30 29 29 28 28 28
27 29 30 32 33 32 32 32 32 33 34 33 30 28 31 32 26 24 29 32 29 33 38 37 37 37 35 35 36 36 35 36 36 35 36 36 35 35 35 34 34 33 33 32 32 31 31 31 32 32 33 32 33 32 32 32 32 31 30 29 29 29 28
26 28 29 31 32 31 31 32 33 34 34 34 32 32 35 34 31 31 33 31 32 35 36 35 36 36 35 36 36 36 36 36 36 36 36 35 35 34 34 34 33 33 32 32 31 31 31 31 32 33 33 32 33 32 32 32 32 32 31 30 30 29 29
24 26 27 29 31 31 29 30 33 34 33 34 34 34 35 34 32 34 34 30 31 34 34 35 35 35 35 35 35 35 36 36 36 36 36 35 35 34 34 33 33 32 32 32 31 31 32 31 32 33 33 33 33 33 33 33 33 33 32 31 30 30 29
22 24 26 28 30 30 27 27 30 31 30 32 33 34 35 34 32 32 30 27 29 33 34 35 35 34 35 34 34 34 35 35 36 36 36 35 35 34 34 33 33 33 32 32 32 32 32 32 32 33 33 33 33 33 33 33 33 33 33 32 31 30 30
22 24 26 27 27 25 24 26 30 32 32 33 34 35 36 36 35 32 29 28 32 34 34 34 34 34 34 34 34 34 35 36 36 36 36 36 35 35 34 34 33 33 33 33 32 33 33 32 33 34 34 33 33 33 34 34 33 33 33 33 32 31 31
21 23 25 26 24 22 24 29 33 33 33 33 32 33 35 38 37 35 33 33 34 34 34 34 33 33 34 34 34 34 35 35 34 34 34 35 35 34 34 33 34 33 33 33 32 32 33 34 34 34 34 34 34 34 34 34 34 34 33 33 33 31 31
21 22 23 22 21 23 28 33 34 33 34 33 31 29 30 32 33 34 34 34 33 33 34 33 33 33 34 33 33 33 32 33 33 32 32 32 32 32 31 32 32 32 33 33 31 31 33 34 35 35 35 35 35 35 34 34 34 34 34 34 33 32 31
21 21 21 21 23 27 32 33 31 30 31 33 31 26 25 25 26 28 32 34 34 33 33 33 33 33 33 32 31 31 31 32 32 31 32 31 30 30 30 30 30 30 31 31 31 31 33 34 34 35 35 35 35 35 35 35 34 34 34 33 33 33 32
21 20 21 22 24 26 28 28 26 25 26 30 30 25 23 24 24 25 29 32 33 33 33 33 33 32 31 29 29 30 31 31 31 31 31 31 30 30 30 29 29 29 29 30 31 32 32 33 33 33 34 34 35 35 35 35 35 34 33 33 33 33 32
21 20 21 22 22 22 22 22 23 24 25 29 31 26 22 24 24 25 27 29 32 32 33 33 32 30 28 27 28 29 30 30 30 30 30 30 30 30 29 29 29 29 30 31 31 31 31 31 31 32 32 33 33 33 34 34 34 34 33 33 33 32 32
20 20 20 21 21 21 21 21 23 24 23 28 31 26 21 22 24 24 25 26 28 29 30 30 30 28 26 26 27 29 29 29 29 29 29 30 30 29 29 29 29 29 30 30 30 30 30 30 31 31 31 31 32 32 32 33 33 33 33 33 33 33 32
20 20 21 21 21 20 20 21 23 23 24 28 29 23 20 22 23 24 24 24 25 26 26 26 27 26 25 26 27 28 29 28 28 28 28 29 29 29 29 29 29 29 29 29 29 29 29 30 30 30 30 30 30 31 31 32 32 32 33 33 34 34 33
20 20 20 21 20 19 20 21 22 23 25 26 24 20 20 21 22 23 23 23 24 25 25 25 25 25 25 26 27 27 27 27 27 27 27 28 28 28 28 29 29 29 29 29 29 29 29 29 29 29 29 29 29 29 31 31 32 32 33 33 34 34 34
20 20 20 20 20 20 20 21 22 23 23 21 20 20 21 21 22 23 23 22 23 23 24 25 25 25 25 26 25 26 26 26 26 26 26 27 27 28 28 28 29 29 28 28 28 28 28 28 28 28 28 27 28 29 30 30 31 32 33 33 34 34 34
20 20 19 19 19 19 20 20 20 21 20 19 19 20 21 22 23 22 22 22 22 22 23 23 24 24 25 25 25 24 24 25 25 25 25 25 26 27 27 27 27 28 28 28 28 28 27 27 27 27 27 27 27 28 29 29 30 31 32 33 33 33 33
18 18 18 18 18 19 20 20 19 19 20 20 20 20 20 21 22 21 21 22 22 22 22 22 22 23 24 24 24 24 24 24 24 24 25 25 25 26 26 26 26 27 27 27 27 27 27 27 27 27 27 27 27 27 28 28 29 30 31 32 32 33 32
18 17 18 19 19 19 21 21 19 19 20 21 21 20 19 20 20 21 21 21 21 22 22 21 22 22 22 23 23 23 24 24 24 24 24 24 24 24 25 26 26 26 26 26 27 27 26 26 26 27 27 27 27 27 28 28 29 30 31 31 31 32 32
19 19 19 20 20 20 21 21 20 20 20 20 21 21 19 19 20 21 21 21 21 21 21 21 21 21 21 22 22 22 23 24 24 23 23 23 23 23 24 25 26 26 26 26 26 26 26 26 26 26 27 27 27 27 28 28 28 29 30 30 31 31 31
18 18 19 20 20 20 21 21 20 21 21 21 21 21 20 20 20 21 21 21 21 21 21 21 21 21 21 21 21 21 22 23 23 23 23 23 23 23 23 24 25 25 25 25 25 25 25 26 26 26 26 27 27 27 28 28 28 28 29 30 30 30 31
17 18 19 20 20 21 22 21 20 21 21 21 21 21 21 21 20 20 20 21 21 21 21 21 21 21 21 21 21 21 21 22 23 23 23 22 22 23 23 24 25 25 25 24 25 25 25 25 25 26 26 27 27 27 27 28 28 28 29 29 29 30 30
18 18 19 19 19 20 21 20 20 20 20 20 21 21 21 21 20 19 19 20 21 21 20 20 20 20 21 21 21 21 21 21 22 22 22 22 22 23 23 24 25 25 25 25 25 25 25 25 25 26 26 27 27 27 27 27 27 28 28 29 29 29 30
16 17 17 17 16 17 18 19 19 19 19 20 20 20 20 20 20 19 19 19 20 20 20 20 20 20 20 21 21 21 21 21 21 21 22 22 22 23 23 24 25 25 25 25 25 25 25 25 25 26 26 26 27 27 27 27 27 27 28 28 28 29 29
14 15 15 15 14 15 16 17 18 19 19 19 19 20 20 20 20 20 19 19 19 20 20 20 20 20 20 21 21 21 21 21 21 21 21 22 22 23 23 23 24 25 25 25 25 25 25 24 24 25 25 26 26 26 26 26 27 27 27 27 27 27 28
13 14 14 14 14 14 15 16 17 18 19 19 18 19 20 19 20 20 20 19 19 19 20 19 20 20 20 20 21 21 21 21 21 21 21 22 22 23 23 23 23 24 24 24 24 24 24 24 23 23 24 24 25 25 26 26 26 26 26 26 26 26 26
13 13 14 14 14 14 15 15 16 17 19 19 19 19 19 19 20 20 20 20 20 19 20 19 19 20 20 20 20 20 20 20 21 21 21 21 22 22 23 23 23 23 23 24 24 23 23 23 23 23 23 23 24 24 25 25 26 25 25 26 26 25 25

ECMWFFLT2_925_temp_036.txt.gz
Temp
32 32 32 34 31 28 29 29 26 27 32 30 24 22 24 23 22 23 23 24 27 30 33 36 36 35 35 35 34 33 33 33 32 32 32 32 31 31 31 30 30 30 29 29 29 29 29 29 28 28 27 27 26 26 26 25 25 25 25 25 24 24 24
32 33 33 34 34 32 29 26 27 32 33 31 27 23 23 23 22 23 23 23 24 24 27 34 37 35 35 35 33 33 33 32 32 32 32 32 32 31 31 30 30 30 29 29 29 29 29 29 29 28 28 27 27 26 26 26 25 25 25 25 25 24 24
32 33 32 30 32 35 32 29 32 32 26 25 25 23 22 22 22 23 23 23 24 23 25 31 35 36 36 35 33 33 32 32 32 32 32 32 32 31 31 30 30 30 29 29 29 29 29 29 29 28 28 27 27 26 26 26 25 25 25 25 25 25 24
32 32 30 26 28 32 33 32 34 32 28 25 25 24 23 22 22 22 23 23 23 26 29 32 34 36 37 35 33 32 32 32 32 32 32 32 32 31 31 30 30 30 30 30 30 30 30 29 29 29 28 27 27 27 26 26 26 26 25 25 25 25 25
29 28 29 28 28 30 30 28 28 29 29 27 27 26 25 24 22 22 23 22 23 28 34 35 35 35 36 36 34 32 32 33 33 33 32 32 32 31 31 31 30 30 30 30 30 30 30 29 29 29 28 28 27 27 26 26 26 26 25 25 25 25 25
24 27 32 33 32 32 31 28 28 28 28 26 24 24 24 25 23 22 23 22 24 31 35 35 35 35 35 37 36 33 33 33 33 33 33 32 32 32 31 31 31 30 30 30 30 30 30 29 29 29 29 28 28 27 27 26 26 26 25 25 25 25 25
24 28 32 33 33 34 33 31 31 32 30 26 22 22 23 24 24 24 24 22 25 34 36 35 36 36 35 37 36 34 33 33 33 33 33 33 32 32 32 31 31 30 30 30 30 30 29 29 29 29 29 28 28 28 27 27 26 26 26 25 25 25 25
25 29 31 33 34 34 32 31 32 32 31 29 27 26 26 24 23 24 23 22 26 34 36 34 35 35 36 36 36 34 33 33 34 34 33 33 32 32 32 32 31 31 30 30 29 29 29 29 29 29 29 29 28 28 27 27 26 26 26 26 25 25 25
24 25 27 28 30 32 31 31 33 33 32 32 31 29 27 25 23 24 23 22 25 34 37 35 34 34 35 36 35 34 34 34 34 34 33 33 32 32 32 32 31 31 30 30 29 29 29 29 29 29 29 29 29 28 28 27 27 26 26 26 26 25 25
22 22 23 23 25 29 31 32 33 33 33 32 29 27 24 23 23 24 23 23 26 34 38 36 34 33 35 36 35 34 34 34 34 34 33 33 32 32 32 32 31 31 30 29 29 29 28 29 29 29 29 29 29 29 28 28 27 27 26 26 26 25 25
21 21 22 24 24 25 27 30 31 32 33 33 30 26 23 24 24 23 24 26 27 32 37 37 35 34 35 35 34 34 34 34 34 34 33 33 32 32 32 32 31 31 30 29 29 29 28 29 29 29 29 29 29 29 29 28 28 27 27 26 26 26 25
20 21 22 24 25 25 26 29 30 31 33 32 29 26 25 27 24 22 26 28 25 30 37 37 35 34 35 36 35 34 34 34 34 34 33 33 32 32 32 32 31 31 30 29 29 29 29 29 29 29 29 30 30 29 29 29 28 28 27 27 26 26 26
20 21 22 24 26 27 28 30 31 31 32 31 28 27 29 29 25 24 29 29 27 32 37 36 34 34 33 35 35 34 33 34 34 33 33 33 32 32 32 32 31 31 30 29 29 29 29 29 29 29 29 30 30 30 29 29 29 28 28 27 27 26 26
19 21 23 26 27 27 28 30 32 32 32 32 30 30 31 31 29 30 32 30 29 33 34 33 34 33 32 33 33 33 33 34 34 33 33 33 33 33 32 32 31 31 30 30 29 29 29 29 29 29 29 30 30 30 30 29 29 29 28 27 27 27 26
19 22 23 25 27 27 27 29 32 33 32 32 31 32 32 31 30 31 31 29 30 32 31 31 32 32 32 32 32 32 33 33 34 34 33 33 33 33 32 32 32 31 30 30 29 29 29 29 29 30 30 30 30 30 30 30 29 29 28 28 27 27 27
19 21 22 23 26 27 26 25 27 29 30 30 30 30 30 29 28 29 28 27 29 31 31 30 30 30 30 31 31 32 32 33 34 34 34 34 33 33 33 32 32 31 31 30 29 29 29 29 29 30 30 30 30 30 31 30 30 30 29 28 28 27 27
18 20 21 22 24 24 23 22 23 25 27 27 26 25 25 25 27 28 27 28 30 31 30 29 29 29 29 28 29 30 31 32 33 33 33 33 33 33 33 32 32 32 31 30 30 29 30 30 30 30 30 30 30 31 31 31 31 30 29 29 28 28 27
18 19 20 21 22 22 22 23 23 24 24 23 22 22 22 22 24 26 28 30 32 30 28 28 27 27 28 28 28 28 29 29 30 30 30 30 31 31 31 31 31 31 31 30 29 29 30 30 30 31 31 31 31 31 31 31 31 31 30 29 29 28 28
17 19 19 21 21 21 23 23 23 23 24 23 22 22 22 22 22 24 26 29 30 28 27 27 27 27 27 27 28 28 28 28 28 28 28 28 29 29 29 30 30 30 31 30 29 29 31 31 31 31 31 31 31 31 31 31 31 31 31 30 30 29 28
18 18 19 20 21 22 23 22 21 21 22 22 22 22 21 21 22 22 24 27 28 28 27 27 27 27 27 27 27 27 28 28 28 28 28 28 28 27 27 28 28 28 29 29 29 29 30 31 31 31 32 32 31 31 32 32 31 31 31 31 30 29 29
18 18 17 18 21 22 21 20 20 20 20 21 21 21 21 21 22 21 22 24 26 26 26 27 27 27 27 26 26 26 27 27 27 27 28 27 27 27 27 27 27 27 27 27 27 27 28 29 29 30 31 32 32 32 32 31 31 31 31 31 30 30 29
18 18 17 19 20 20 19 18 18 20 20 21 21 22 21 21 21 21 21 22 24 24 25 26 27 27 26 24 24 25 26 26 26 27 27 27 27 27 27 26 26 26 27 27 27 27 27 27 27 29 30 31 31 31 31 31 31 31 30 30 31 30 30
17 17 18 18 18 18 17 17 18 19 19 20 21 22 21 20 21 21 21 21 22 23 24 24 25 25 24 22 23 24 25 25 25 25 26 26 26 26 26 26 26 26 26 26 26 27 26 26 27 28 29 29 30 30 30 31 31 30 30 30 31 31 30
17 18 18 17 15 16 17 16 17 18 20 21 22 21 20 19 20 21 21 21 21 22 23 23 23 23 22 22 23 24 24 24 24 24 25 25 26 26 26 26 26 26 26 26 25 25 25 26 27 27 28 28 29 28 29 29 30 30 31 31 31 31 31
17 18 19 17 15 15 16 16 16 18 20 21 21 19 19 19 19 20 21 20 20 21 22 22 22 22 22 23 23 23 23 23 23 23 24 24 25 25 25 25 25 26 25 25 25 25 26 26 26 27 27 27 27 27 28 28 29 30 30 31 31 31 31
17 18 19 17 15 15 15 16 17 19 20 19 18 18 18 18 18 20 20 20 20 20 21 21 21 22 22 22 23 23 23 22 22 22 23 23 24 24 24 25 25 25 24 25 25 25 26 26 26 26 26 26 26 26 27 27 28 29 30 31 31 31 31
16 17 17 16 15 15 15 16 17 18 18 17 17 18 18 17 17 19 19 20 20 20 20 20 20 20 21 21 22 22 22 22 22 22 22 22 22 23 24 24 24 24 24 24 24 25 26 26 26 26 26 25 25 26 26 27 28 29 29 31 31 32 31
15 15 15 16 16 16 15 16 16 17 17 18 18 18 18 17 16 17 18 19 19 19 19 20 20 20 20 20 20 21 21 21 21 21 21 22 22 22 23 23 24 24 23 23 24 25 26 26 26 26 25 25 25 26 26 27 28 28 29 30 31 32 31
16 16 16 17 17 17 16 16 16 16 17 18 18 18 18 17 16 16 16 17 18 19 19 19 19 19 19 20 20 20 20 20 21 21 21 21 21 22 22 22 23 24 23 23 24 25 25 25 25 26 25 25 25 26 27 27 27 28 28 29 30 31 31
16 17 17 16 16 17 17 17 16 16 17 17 18 18 17 17 17 17 16 16 18 18 18 19 19 19 19 19 19 19 20 20 20 20 20 21 21 21 21 22 23 24 24 24 24 24 25 25 25 25 25 25 25 26 27 27 27 27 28 28 29 30 30
16 16 15 14 15 16 17 17 16 15 16 16 17 17 17 17 17 17 16 16 17 18 18 18 18 19 19 19 19 19 19 19 20 20 20 20 20 20 21 21 22 23 24 23 23 23 24 24 25 25 25 26 26 26 26 27 27 27 28 28 28 28 29
15 15 14 14 14 16 16 15 15 15 15 15 16 16 17 18 18 18 18 17 17 17 18 18 18 19 19 19 19 19 19 19 20 20 20 20 20 20 21 22 22 23 24 23 23 23 23 23 24 24 25 25 25 25 26 26 27 27 28 28 28 28 28
13 14 14 13 13 15 15 15 15 15 14 14 15 15 16 18 18 18 18 18 18 18 18 18 18 18 19 19 19 19 19 19 19 20 19 20 20 20 21 22 22 22 23 24 24 23 23 23 24 24 24 25 25 25 26 26 27 27 27 27 28 28 28
11 12 13 12 12 12 13 13 14 14 14 14 15 15 15 17 18 18 18 18 18 18 18 18 18 18 19 19 19 19 19 19 19 19 19 19 19 20 21 21 22 22 23 24 24 23 22 24 24 23 24 24 24 25 25 26 26 27 27 27 27 28 28
10 11 12 12 11 11 12 13 13 13 13 14 14 15 15 15 17 18 18 18 18 18 18 18 18 19 19 19 19 19 19 19 18 19 19 19 19 20 21 21 21 22 22 23 23 23 22 23 24 23 23 24 24 25 25 25 26 26 26 26 26 26 27
10 10 11 11 10 10 11 12 12 12 13 13 14 15 15 16 16 17 17 17 18 18 19 18 18 18 19 18 18 19 19 18 17 18 19 19 19 20 21 21 21 22 22 22 23 23 23 23 23 23 24 24 24 25 25 25 25 25 25 25 25 25 26
9 10 10 10 10 10 10 11 11 11 12 13 13 15 16 16 16 17 17 17 18 18 19 19 18 18 18 17 17 18 18 17 18 19 19 19 19 20 20 21 21 22 22 22 22 23 23 23 23 23 23 24 24 24 24 24 24 24 24 24 24 24 25

ECMWFFLT2_925_temp_042.txt.gz
Temp
23 25 26 28 27 25 25 25 23 24 27 26 22 21 22 22 21 22 22 22 24 26 29 31 31 29 30 30 31 31 31 31 31 30 30 29 29 29 29 29 28 28 28 27 27 27 27 26 26 26 26 25 25 25 24 24 24 24 23 23 23 23 23
23 22 24 27 28 27 25 23 24 27 28 27 24 21 22 21 21 22 22 22 23 23 25 30 32 31 31 30 30 31 31 31 30 30 30 30 30 30 29 29 28 28 28 27 27 27 27 27 26 26 26 25 25 25 25 24 24 24 24 23 23 23 23
21 21 22 25 27 29 27 25 27 27 24 23 23 22 21 21 21 21 22 22 23 22 24 28 31 31 32 31 30 30 31 31 30 30 30 30 30 30 29 29 29 28 28 28 27 28 27 27 27 26 26 26 25 25 25 25 24 24 24 24 23 23 23
19 20 22 23 24 27 28 27 28 28 25 23 23 22 22 21 21 21 22 22 22 24 27 30 32 32 33 31 30 30 30 31 31 30 30 30 30 30 30 29 29 28 28 28 28 28 28 27 27 27 26 26 25 25 25 25 24 24 24 24 23 23 23
19 21 22 23 24 25 25 25 25 25 25 25 24 24 23 22 21 21 22 21 22 26 30 32 33 33 33 33 32 31 30 31 31 31 31 30 30 30 30 30 29 29 29 28 28 28 28 28 27 27 26 26 26 25 25 25 25 24 24 24 23 23 23
17 19 21 22 22 21 22 23 24 25 25 24 23 22 23 23 22 22 22 21 23 28 30 31 33 32 31 32 32 32 31 31 31 31 31 31 30 30 30 30 30 29 29 29 28 28 28 28 27 27 27 26 26 26 25 25 25 24 24 24 24 23 23
16 18 19 19 19 20 20 22 25 27 26 24 22 21 22 23 22 22 23 21 24 31 31 30 32 32 31 31 31 32 32 31 31 32 31 31 31 30 30 30 30 30 29 29 28 28 28 28 27 27 27 26 26 26 25 25 25 25 24 24 24 24 23
18 19 20 20 19 20 21 21 23 24 25 25 25 24 23 23 22 22 22 21 24 31 31 30 32 31 31 30 30 31 32 31 31 32 32 32 31 31 31 30 31 30 30 29 28 27 27 27 27 27 27 27 26 26 26 25 25 25 25 24 24 24 23
20 21 22 21 20 19 18 19 19 20 23 25 26 25 24 23 22 23 22 21 24 28 29 29 30 31 31 31 30 30 31 31 31 31 31 31 31 31 31 30 30 30 29 29 28 27 27 27 27 27 27 27 26 26 26 26 25 25 25 25 24 24 24
20 20 20 19 17 16 16 17 18 19 20 21 23 23 23 22 22 23 22 22 25 29 30 30 31 31 32 33 32 30 30 30 30 31 31 31 31 31 30 30 30 30 29 29 28 27 27 27 27 27 27 27 26 26 26 26 26 25 25 25 24 24 24
17 17 16 15 15 15 16 17 17 18 18 19 21 22 22 22 23 22 23 24 25 27 31 32 32 32 33 33 33 32 32 31 31 30 30 31 31 31 30 30 30 29 29 28 28 27 27 27 27 27 27 27 27 26 26 26 26 25 25 25 25 24 24
14 15 15 15 15 15 15 16 16 17 18 19 20 21 22 24 23 21 24 26 24 27 31 31 30 32 32 33 34 34 33 32 31 31 30 30 30 31 30 30 29 29 29 28 28 27 27 27 27 27 27 27 27 26 26 26 26 26 25 25 25 24 24
14 15 15 15 15 15 15 16 16 17 18 19 19 20 22 24 23 23 26 27 26 28 30 27 26 27 28 29 31 31 30 30 30 30 31 30 30 30 30 29 29 29 28 28 28 27 27 27 27 27 27 27 27 26 26 26 26 26 25 25 25 25 24
14 14 14 15 15 15 16 17 18 18 19 19 20 20 22 23 24 26 28 29 28 28 25 23 24 23 23 24 25 24 25 26 28 29 30 30 30 30 30 29 29 29 28 28 28 27 27 27 27 27 27 27 27 27 26 26 26 26 25 25 25 25 24
14 14 15 16 16 16 17 18 19 19 19 20 20 20 21 22 24 27 28 28 28 26 23 22 23 22 22 22 22 22 23 24 26 28 29 29 30 30 29 29 29 29 28 28 27 27 27 27 27 27 27 27 27 27 27 26 26 26 26 25 25 25 25
14 15 15 16 16 17 18 18 18 18 19 20 20 20 20 20 21 24 25 25 24 23 22 22 22 22 22 22 22 22 22 22 25 28 29 29 30 30 29 29 29 28 28 28 27 27 27 27 27 27 27 27 27 27 27 26 26 26 26 25 25 25 25
14 15 15 15 16 19 19 18 17 17 18 19 19 18 18 18 19 21 22 22 21 21 22 22 22 22 22 22 22 22 22 22 23 27 29 29 29 30 29 29 29 28 28 28 27 27 27 27 27 27 27 27 27 27 27 27 26 26 26 25 25 25 25
13 14 14 15 18 20 19 18 17 17 17 18 18 18 17 17 18 19 20 20 21 21 22 22 22 22 22 22 22 22 22 22 22 26 29 29 29 29 29 29 29 28 28 28 27 27 27 28 28 28 28 27 27 27 27 27 27 26 26 26 25 25 25
12 13 14 17 19 19 18 18 17 17 17 17 17 18 18 17 17 17 18 19 20 20 21 22 22 23 23 23 22 22 22 22 21 24 27 30 30 29 29 29 28 28 28 28 27 27 27 28 28 28 27 27 27 27 27 27 27 26 26 26 25 25 25
12 13 15 18 19 18 18 18 17 16 17 16 16 18 18 16 16 16 17 18 19 20 21 22 22 23 24 23 22 22 22 22 22 22 24 27 29 29 29 28 28 28 27 27 27 27 27 27 28 27 27 27 27 27 27 27 27 26 26 26 26 25 25
13 13 14 16 17 17 17 16 15 15 15 15 15 17 17 16 16 16 16 17 18 19 20 21 23 24 24 23 22 22 21 21 22 22 22 24 26 28 28 27 26 26 26 27 27 27 27 27 27 27 27 28 27 27 27 27 27 26 26 26 26 25 25
13 13 14 16 18 18 16 14 14 14 15 15 15 16 17 17 16 15 15 16 17 18 19 20 22 24 24 22 22 21 21 21 21 22 22 22 23 25 26 26 25 25 26 26 27 27 27 27 27 27 27 27 27 27 27 27 27 26 26 26 26 26 25
11 12 14 15 17 16 14 12 12 14 15 15 15 16 17 16 15 15 15 15 16 17 18 18 20 23 23 21 21 20 20 21 21 21 22 22 22 23 24 25 25 25 26 26 27 27 27 27 27 28 28 28 27 27 27 27 26 26 26 26 26 26 26
11 12 13 14 14 14 12 11 12 14 14 15 16 18 17 15 15 15 14 14 15 16 17 18 18 19 20 20 19 20 20 20 21 21 21 21 22 22 22 23 24 24 25 26 26 26 26 26 27 28 28 28 27 27 27 27 26 26 26 27 27 27 26
12 13 13 14 14 13 12 12 12 13 14 16 17 17 15 14 14 14 14 14 14 15 17 17 16 16 18 18 19 19 20 20 20 20 21 21 22 22 22 22 22 23 23 24 24 24 25 26 27 28 28 27 27 26 27 26 26 27 27 27 27 27 27
13 13 14 14 14 12 12 12 12 13 15 16 15 14 14 13 13 14 14 14 14 14 16 16 15 15 16 17 18 19 19 19 19 19 20 20 21 21 22 22 22 22 22 22 22 22 23 25 26 27 27 26 26 26 26 26 27 27 27 27 27 27 27
13 13 14 14 13 12 12 12 12 12 13 12 12 12 12 12 12 12 13 13 13 13 14 15 16 15 15 16 17 18 19 19 19 19 19 19 20 20 21 21 21 21 21 21 21 22 23 24 25 26 26 25 25 25 25 25 26 27 27 27 27 27 27
12 12 12 12 11 11 11 12 11 11 11 11 11 11 11 11 11 11 12 12 13 13 13 14 15 15 15 15 16 17 18 18 18 19 19 19 19 20 20 20 21 21 20 20 20 21 22 23 24 25 25 24 24 24 24 25 26 27 27 27 27 27 27
11 11 11 11 11 11 11 11 11 11 11 11 11 10 10 10 10 11 11 11 12 13 13 14 15 15 14 15 15 16 17 17 18 18 19 19 19 19 19 20 20 20 20 20 20 21 22 23 24 25 25 25 24 23 24 25 26 27 27 27 27 27 27
11 12 12 11 11 10 11 12 12 11 10 10 10 10 10 10 10 11 11 11 11 12 13 13 14 14 14 14 15 15 16 17 17 17 18 18 18 19 19 19 20 20 20 20 20 20 21 22 23 24 25 25 24 24 25 26 26 27 27 27 27 27 27
11 12 12 10 10 10 10 11 12 11 10 10 10 10 10 10 10 10 11 11 11 12 12 13 13 14 14 14 14 14 15 16 16 16 17 18 18 18 18 19 19 20 20 20 20 20 20 21 22 24 25 25 25 25 26 26 26 27 27 27 27 27 27
10 11 11 10 10 11 11 11 11 11 10 10 10 10 10 10 10 10 11 11 11 12 12 13 13 13 14 14 14 14 15 15 16 16 16 17 18 18 18 19 19 19 19 19 19 19 19 20 21 23 24 24 25 26 26 26 26 26 27 27 27 27 27
10 11 10 9 10 11 11 11 10 10 10 10 10 10 9 10 10 10 11 11 11 11 12 13 13 13 13 14 14 14 14 15 16 16 16 17 17 17 18 18 19 19 19 19 19 19 19 20 21 22 23 23 25 25 26 26 26 26 26 26 26 26 27
9 9 9 9 9 9 10 10 10 10 10 10 9 9 9 10 10 10 10 10 11 11 12 13 13 13 13 14 14 14 14 15 15 15 16 16 17 17 17 18 18 19 19 19 19 19 20 21 22 22 22 23 24 24 25 25 26 25 25 25 25 25 25
9 9 9 9 8 8 9 9 10 10 10 9 9 9 9 9 10 10 10 10 11 11 12 13 13 13 13 13 13 14 14 15 15 15 16 16 16 17 17 17 17 18 19 19 20 20 20 21 22 22 23 23 23 24 24 25 25 25 25 25 24 24 24
8 9 9 9 8 8 9 9 9 10 10 9 9 9 9 9 10 10 10 10 10 10 11 13 13 13 13 13 13 13 14 14 14 15 16 16 16 16 17 17 17 17 18 19 19 20 21 22 22 23 23 23 23 23 24 24 25 25 24 24 24 23 23
9 9 9 9 9 9 9 9 9 10 10 10 10 10 10 10 10 10 10 10 10 11 11 12 13 13 12 13 13 13 13 14 14 15 16 16 16 17 16 16 16 17 18 18 19 20 22 22 23 23 23 22 23 23 23 24 24 24 24 24 23 23 23

ECMWFFLT2_925_temp_045.txt.gz
Temp
23 23 23 26 26 25 26 26 23 25 28 26 22 21 22 22 21 22 22 22 25 27 28 31 31 31 32 33 33 33 33 33 32 32 32 32 31 31 31 30 29 29 29 29 28 28 28 27 27 27 26 25 25 25 24 24 24 23 23 23 23 23 23
23 22 22 25 26 26 25 24 25 27 28 27 24 21 21 21 21 22 22 22 23 23 25 30 32 31 32 33 33 33 34 33 33 32 32 32 32 32 31 30 30 29 29 29 29 28 28 28 27 27 26 26 25 25 25 24 24 24 23 23 23 23 23
22 23 24 24 26 27 26 26 28 27 23 23 23 21 21 21 21 22 22 22 23 22 24 28 31 31 32 33 32 33 33 33 33 33 33 32 32 32 31 31 30 30 29 29 29 29 29 28 27 27 26 26 26 25 25 25 24 24 24 24 23 23 23
21 23 23 23 24 27 27 27 29 28 25 23 23 22 22 21 21 21 22 22 22 24 28 30 31 32 33 33 32 32 33 33 33 33 33 32 32 32 31 31 31 30 30 30 30 29 29 29 28 27 27 27 26 26 26 25 25 25 24 24 24 23 23
21 22 24 24 24 25 25 25 25 25 26 25 24 24 23 22 21 21 22 21 22 27 31 32 32 33 33 34 33 32 32 33 33 33 33 33 32 31 31 31 31 31 30 31 30 30 30 29 28 28 27 27 27 27 26 26 25 25 25 25 24 24 24
21 22 23 23 23 22 23 23 24 25 25 24 23 22 23 23 22 22 22 21 23 29 32 32 33 34 34 34 34 33 34 34 34 33 33 33 32 32 32 32 32 31 31 31 31 30 30 29 29 28 28 28 27 27 27 26 26 26 25 25 24 24 24
20 21 22 22 21 21 21 22 24 25 25 24 22 21 22 23 22 23 22 21 24 30 32 31 32 34 34 34 34 34 35 35 34 33 33 33 32 32 32 32 32 32 31 31 31 30 30 29 29 29 28 28 28 27 27 27 26 26 26 26 25 24 24
20 21 22 21 21 21 21 21 23 23 23 23 22 23 23 23 22 22 22 21 24 30 33 32 32 32 32 33 33 34 35 35 34 33 33 33 32 31 32 32 32 32 31 31 31 30 29 29 29 29 29 28 28 28 27 27 27 27 26 26 25 24 24
20 21 22 21 21 22 21 21 21 21 22 22 23 24 24 23 22 23 22 21 24 29 32 32 33 32 31 32 32 32 33 33 33 33 32 32 31 31 32 32 32 32 31 30 30 29 29 29 29 29 28 28 28 28 28 27 27 27 26 26 26 25 24
19 20 20 19 19 20 20 20 20 20 21 21 22 22 22 22 22 23 22 22 25 30 31 31 32 32 31 32 32 32 32 32 32 32 31 31 31 31 31 31 31 31 31 30 29 29 29 29 29 29 28 28 28 28 28 28 27 27 27 26 26 25 25
17 17 16 16 17 18 19 20 20 20 20 20 21 21 21 22 22 22 23 24 25 28 31 31 32 32 32 32 32 32 32 31 31 31 30 31 31 30 31 31 31 31 30 30 29 29 29 29 29 29 28 28 28 28 28 28 27 27 27 26 26 25 25
16 16 15 16 16 17 18 19 19 20 20 20 20 21 21 22 22 21 25 26 24 26 31 30 29 29 30 30 30 30 29 28 29 29 29 30 31 31 31 30 30 30 30 29 29 29 29 30 29 29 29 29 28 28 28 28 28 27 27 26 26 25 25
16 16 16 16 16 17 17 18 18 19 20 20 20 21 21 22 21 21 24 26 25 26 28 27 26 26 26 27 27 26 26 27 27 27 28 29 31 31 31 30 30 30 30 29 29 28 29 30 29 29 29 29 28 28 27 28 27 27 27 26 25 25 25
15 16 16 16 16 17 17 18 18 19 20 21 21 21 22 22 22 23 24 25 25 25 25 24 25 25 24 25 25 25 25 25 25 26 27 29 30 32 32 31 30 30 30 29 29 28 29 29 29 29 29 28 28 28 28 27 27 27 26 26 26 25 25
15 16 17 17 17 17 17 18 19 20 20 21 21 21 21 21 22 23 24 24 24 24 23 24 24 24 24 25 24 24 25 24 24 25 26 27 29 30 32 32 31 30 30 29 29 28 28 29 29 29 29 28 28 28 28 28 27 27 26 26 26 25 25
14 16 17 17 18 17 17 18 19 20 20 20 20 19 19 19 20 21 22 23 23 23 22 23 24 24 25 24 24 24 24 23 24 24 25 26 27 28 30 31 31 30 30 29 29 28 29 29 29 29 29 28 29 29 28 28 28 27 27 26 26 26 25
14 16 17 17 17 17 18 19 20 20 20 19 19 18 18 17 18 20 21 21 21 20 21 23 24 24 24 23 23 23 23 23 23 23 24 25 26 27 29 31 31 31 31 30 29 29 30 30 29 29 29 29 29 29 28 28 28 27 27 27 26 25 25
14 16 16 16 16 17 18 19 20 20 19 19 18 17 16 17 17 18 18 18 18 19 20 21 23 24 24 23 23 23 22 22 22 23 24 25 25 27 29 31 31 31 31 30 30 30 30 30 30 29 29 29 29 28 28 28 28 27 27 27 26 25 25
13 15 15 15 17 18 18 18 19 20 19 19 18 17 16 16 16 16 16 17 17 18 19 20 22 23 24 24 23 22 22 22 22 22 23 24 25 26 28 31 31 31 30 30 30 30 30 30 30 29 29 29 28 28 28 28 27 27 26 26 26 25 25
12 13 15 16 17 18 18 17 17 17 18 18 18 17 16 16 15 15 15 16 16 17 18 20 21 22 24 25 24 22 22 21 21 22 23 24 25 25 27 30 30 30 30 30 30 30 30 30 30 29 29 29 29 28 28 28 27 27 26 26 26 25 25
12 13 15 16 16 16 17 16 15 15 15 16 17 17 16 15 15 15 14 15 15 16 18 19 21 23 25 25 24 22 21 20 21 21 23 24 25 25 27 30 30 29 30 30 30 29 29 30 30 29 29 29 29 29 28 28 27 27 26 26 26 25 25
12 13 14 15 16 15 15 14 14 14 15 15 16 17 16 15 15 14 14 14 14 15 16 18 19 23 25 23 22 21 20 19 19 21 22 23 25 25 27 29 30 29 29 29 29 29 29 30 30 29 29 29 29 29 28 28 27 27 27 26 26 26 25
12 13 13 15 16 14 13 13 14 15 15 14 16 18 17 14 14 13 13 14 14 14 15 16 18 20 21 19 18 18 17 17 18 20 22 22 24 25 26 28 29 29 29 29 29 29 29 29 29 29 29 29 28 28 28 28 27 27 27 27 26 26 26
12 12 13 14 14 13 12 12 14 15 14 14 17 19 17 13 12 12 12 13 13 13 14 15 16 16 16 15 15 16 16 16 18 20 22 22 23 24 26 27 28 28 28 28 29 29 29 29 29 28 28 29 28 28 28 28 28 28 27 27 27 26 26
12 12 13 14 13 13 12 12 13 14 14 15 17 17 14 12 12 12 11 12 12 12 13 14 14 14 14 14 15 15 15 16 18 20 21 22 22 24 25 25 26 27 28 28 29 30 29 28 28 28 28 28 28 28 28 28 28 28 27 27 26 26 26
12 12 13 13 13 12 11 12 13 13 14 15 15 13 11 11 11 11 11 11 11 12 13 13 14 14 15 15 14 15 15 16 18 19 20 21 22 23 24 24 24 26 28 28 29 29 28 28 28 28 28 28 28 27 27 28 28 28 27 27 26 26 26
13 13 13 13 13 12 11 11 12 12 13 12 11 11 11 11 11 10 11 11 11 11 12 13 13 14 14 14 14 14 15 16 17 18 19 20 21 22 23 24 24 25 26 26 27 28 28 28 28 28 28 28 27 27 27 27 28 28 27 27 27 26 26
12 13 12 11 11 11 11 11 11 11 11 10 10 10 10 10 10 10 10 10 11 11 11 12 13 13 13 13 13 14 14 15 16 17 18 19 20 21 22 23 23 24 25 25 25 26 27 27 28 28 28 27 27 27 27 27 27 27 27 27 27 26 26
11 11 10 10 10 10 11 11 11 10 10 10 10 10 10 10 10 10 10 10 11 11 11 11 12 13 13 13 13 13 14 15 16 16 17 18 19 20 21 21 22 24 24 24 24 24 25 26 26 27 27 27 27 27 27 27 27 27 27 27 27 26 26
10 10 9 9 10 10 11 11 11 11 11 10 10 10 10 9 9 10 10 10 10 10 11 11 12 12 13 13 13 14 14 15 15 16 16 17 18 19 20 20 21 22 23 24 24 24 24 24 25 26 26 26 26 26 25 26 27 27 27 27 26 26 26
10 10 10 9 9 10 11 11 10 10 10 10 10 10 10 9 9 10 10 10 10 10 11 11 11 12 13 13 13 13 14 15 15 15 16 16 17 18 19 20 20 21 22 23 23 23 23 23 23 24 25 25 25 25 25 26 26 26 26 26 26 26 26
10 10 10 10 10 10 11 10 10 10 10 10 10 10 10 10 10 10 10 10 10 10 11 11 12 12 13 14 13 13 14 14 15 15 15 16 17 17 18 19 20 21 21 22 22 22 22 22 22 23 23 23 24 24 25 25 26 26 26 26 26 26 26
10 10 10 9 10 11 11 10 10 10 10 10 10 10 10 10 10 10 10 11 11 11 11 11 11 12 13 13 13 13 13 14 14 15 15 16 16 17 17 18 19 20 21 21 22 22 22 21 22 22 22 23 23 24 24 25 25 26 25 26 26 26 26
9 9 9 9 9 9 10 10 10 10 10 10 10 9 9 10 10 10 10 10 11 11 11 11 11 12 12 13 13 13 13 14 14 15 16 16 16 16 17 18 18 19 20 21 21 22 21 21 22 22 22 23 23 24 24 25 25 26 26 25 25 25 25
9 9 9 9 8 8 9 10 10 10 10 10 9 9 9 10 10 10 10 10 10 11 11 11 11 11 12 13 13 13 13 13 14 15 15 16 16 16 17 17 17 18 19 20 21 21 21 21 22 22 22 23 23 23 24 25 25 25 25 25 25 25 25
8 9 9 9 8 8 9 10 10 10 10 10 10 10 10 10 10 11 10 10 10 10 11 11 12 12 12 13 13 13 13 13 14 15 15 16 16 16 17 17 17 17 18 18 19 20 20 21 22 22 22 23 23 23 23 24 24 25 25 25 25 25 24
9 9 9 9 9 9 9 10 10 10 10 10 10 10 10 10 10 11 11 10 11 11 11 11 11 12 12 13 13 13 13 13 14 15 15 15 16 17 17 16 16 17 17 18 19 19 20 21 21 22 22 22 23 23 23 23 24 24 24 24 25 25 24

ECMWFFLT2_925_temp_048.txt.gz
Temp
28 28 29 30 29 27 28 28 25 26 30 28 23 22 24 23 22 23 23 23 26 29 31 34 34 34 35 35 35 35 36 36 36 36 36 36 36 36 35 34 33 32 32 32 31 31 30 30 29 29 29 28 28 27 27 26 26 25 25 24 24 24 24
27 28 28 30 30 29 28 25 26 29 31 29 25 22 22 22 22 23 23 23 24 24 26 32 34 34 34 35 35 36 36 36 36 36 36 36 36 36 35 35 33 33 32 32 32 31 31 30 30 29 29 28 28 27 27 26 26 26 25 25 25 25 24
26 27 27 26 29 30 29 28 30 29 25 24 24 22 22 22 22 22 23 23 23 23 25 31 33 34 35 35 35 36 36 37 37 37 37 36 36 36 36 35 34 33 33 33 32 32 32 31 30 29 29 28 28 28 27 27 27 26 26 26 25 25 25
26 26 25 24 25 28 29 29 31 30 26 24 24 23 23 22 22 22 22 23 23 25 29 32 33 35 35 35 35 36 36 37 37 37 37 37 36 36 36 36 35 34 33 34 33 32 32 32 30 30 29 29 29 28 28 28 27 27 26 26 26 25 25
24 23 25 25 25 27 27 26 26 27 27 27 26 25 24 23 22 22 23 22 23 29 34 35 35 35 35 35 36 36 36 37 38 38 38 37 37 37 37 37 36 35 34 34 34 33 33 32 31 31 30 30 30 29 29 28 28 28 27 27 26 26 26
22 23 26 28 28 28 27 26 25 26 26 25 24 23 24 24 23 22 23 22 23 31 36 35 35 36 35 36 36 36 37 37 38 38 38 38 37 37 37 37 37 36 35 35 35 33 33 33 32 31 31 31 30 30 29 29 29 28 28 28 27 26 26
22 24 27 27 26 27 27 26 28 29 28 25 22 22 23 23 23 23 23 22 25 33 36 34 35 36 36 37 36 36 37 37 38 38 38 38 38 37 37 38 38 37 36 35 35 34 33 33 32 32 31 31 31 31 30 30 30 29 29 29 28 27 26
22 23 25 26 26 26 25 26 28 29 28 27 26 25 24 24 23 23 23 21 25 33 35 34 35 36 36 37 36 36 37 37 38 38 38 38 37 37 38 38 38 38 36 35 35 34 33 33 32 32 32 32 31 31 31 31 30 30 30 29 28 27 27
21 21 23 24 25 25 25 26 28 28 29 29 27 26 25 23 22 23 23 21 25 32 35 34 34 35 35 36 36 36 37 37 38 38 38 38 37 36 37 38 38 37 36 35 34 33 33 32 32 32 32 32 32 31 31 31 31 31 30 30 29 28 27
20 20 20 21 22 23 24 26 28 27 27 27 26 24 23 22 23 23 23 22 26 32 34 33 34 35 35 36 36 36 37 36 36 36 36 36 36 35 36 36 36 36 36 34 33 33 33 32 33 32 31 32 32 32 32 31 31 31 30 30 30 29 28
18 19 19 19 20 21 22 24 25 26 26 27 26 23 22 23 23 22 24 25 26 30 33 33 34 35 34 35 34 34 34 34 34 34 34 34 35 34 34 35 35 35 35 34 33 32 33 33 33 32 32 32 32 32 32 32 31 31 30 30 30 29 28
17 18 18 19 20 20 20 22 23 24 25 25 24 23 23 25 23 21 25 27 25 28 33 33 32 32 32 32 32 32 32 32 33 33 32 33 34 34 34 34 34 34 34 33 32 32 33 33 33 32 32 32 32 32 31 31 31 31 31 30 30 29 29
17 18 19 19 20 20 20 21 21 22 23 24 23 23 25 26 23 22 26 27 26 29 33 31 30 30 30 30 30 31 31 31 31 31 32 33 35 35 35 34 33 33 33 33 32 31 32 33 33 33 32 32 32 32 31 31 31 31 31 30 30 29 29
17 18 19 19 20 20 20 21 21 22 23 23 24 24 26 26 24 25 27 27 27 30 30 29 29 29 30 30 30 30 30 30 30 30 31 32 33 34 34 34 34 33 33 32 32 31 32 33 33 33 32 32 32 32 31 31 31 31 31 30 30 29 29
16 17 18 19 20 20 20 20 21 22 22 23 24 25 26 26 25 27 27 25 27 28 26 26 28 29 30 30 29 29 29 28 28 29 30 30 30 31 32 33 33 34 33 33 32 31 31 32 33 33 32 32 32 32 32 31 31 31 31 30 29 29 29
15 17 18 19 20 21 20 20 21 22 22 23 23 24 25 24 24 25 25 24 26 26 24 25 28 29 29 29 29 28 27 27 27 27 27 28 28 29 30 30 31 32 33 34 33 32 32 33 33 33 32 32 32 32 32 31 31 31 31 30 29 29 29
15 17 18 19 20 19 20 21 22 22 23 23 22 21 22 23 23 23 23 23 24 23 22 24 26 28 28 28 27 26 25 24 25 25 25 26 27 28 29 29 30 31 32 34 34 33 33 33 33 33 32 32 32 32 32 31 31 31 31 30 29 29 29
14 16 17 18 18 17 20 23 24 24 24 23 21 21 22 22 22 22 22 22 21 20 20 22 24 25 26 27 26 25 24 23 23 23 24 24 25 26 27 29 30 30 31 33 34 34 34 33 33 33 33 32 32 32 32 31 31 31 31 30 29 28 28
14 16 16 15 16 18 21 23 23 24 25 23 20 20 21 21 20 20 21 20 19 19 19 21 22 24 25 26 25 24 23 22 22 23 23 23 24 24 26 28 29 29 30 31 34 35 34 34 34 33 33 32 32 32 32 31 31 31 30 30 29 28 28
14 15 14 15 17 19 20 20 19 21 22 22 20 19 18 18 19 19 19 19 18 18 19 21 22 24 25 26 25 23 22 22 21 22 22 22 23 23 25 27 28 28 29 31 33 35 34 34 34 33 33 33 32 32 32 31 31 30 30 29 29 28 28
14 14 15 16 17 18 17 16 16 17 18 18 19 18 17 17 18 18 17 17 16 16 18 20 22 23 25 26 25 22 21 21 20 20 21 21 21 23 25 27 28 29 30 31 33 34 34 34 34 34 33 33 33 33 32 31 31 30 30 29 29 28 28
14 14 14 15 16 17 16 15 14 15 16 16 17 18 17 16 17 17 17 16 15 15 17 19 21 23 25 27 25 21 19 19 19 19 20 20 21 23 26 28 29 30 31 32 33 34 34 34 34 34 33 33 32 32 32 32 31 30 30 29 29 28 28
14 14 13 13 16 16 15 14 13 14 15 15 16 18 17 16 16 17 16 15 14 14 15 17 20 23 25 25 21 18 17 17 17 18 18 19 21 24 27 29 29 30 31 32 33 33 33 33 34 33 33 32 32 32 32 31 31 30 30 29 29 28 28
14 13 13 14 16 16 14 13 13 13 13 14 15 18 17 15 15 16 15 14 13 13 14 16 17 18 19 19 17 16 16 16 17 17 18 18 20 24 26 28 28 29 30 31 33 33 33 33 33 33 32 32 32 31 31 31 31 30 30 29 29 29 28
14 13 13 14 16 15 13 14 14 12 13 15 16 16 15 14 15 15 14 14 13 13 14 15 15 15 15 15 16 16 16 16 16 17 17 18 20 23 25 27 27 28 30 31 32 33 33 33 33 32 32 32 32 31 31 31 31 31 30 30 29 29 29
14 14 13 14 15 14 13 14 14 13 13 15 14 13 13 14 14 14 14 13 13 13 13 14 14 14 15 15 15 15 16 16 16 16 17 18 20 21 23 25 27 29 31 31 32 33 33 32 32 32 32 32 31 30 31 31 31 31 30 30 29 29 28
13 13 13 13 13 13 12 13 13 12 12 12 11 12 13 14 14 14 14 13 13 13 13 13 13 14 14 15 15 15 15 15 15 16 17 17 18 20 22 24 26 28 30 30 31 33 32 32 32 32 32 31 30 30 30 31 31 31 30 29 29 28 28
12 12 12 12 12 12 12 12 11 11 11 10 11 12 13 14 14 13 13 13 12 12 12 12 13 13 13 14 14 14 15 15 15 16 16 17 18 19 20 23 24 27 28 29 30 32 32 32 32 32 31 30 30 30 30 30 30 31 30 29 29 28 28
10 11 11 11 11 12 12 12 11 11 11 11 11 12 12 14 14 14 12 12 12 12 12 12 13 13 13 13 13 14 15 15 15 15 16 16 17 18 19 21 22 26 28 28 29 31 31 31 31 31 31 30 29 29 30 30 30 30 29 29 28 28 28
10 10 11 12 12 12 11 11 11 11 11 11 11 11 12 13 14 14 13 12 11 12 12 12 12 12 13 13 13 14 14 14 15 15 16 16 17 17 18 19 21 24 27 28 28 29 29 30 30 30 30 30 29 29 29 29 29 30 29 28 28 28 28
10 11 11 12 11 11 11 11 11 11 11 10 10 11 11 12 13 14 14 13 12 12 12 12 12 13 13 13 13 13 14 14 15 15 15 16 16 16 17 18 19 22 25 27 28 27 28 28 29 29 29 29 29 29 28 29 29 29 28 28 28 28 28
10 11 11 11 11 12 12 10 10 11 11 10 10 11 11 12 13 14 14 13 13 12 12 12 12 13 13 13 13 13 13 14 14 14 15 16 16 16 16 17 19 20 23 24 26 26 27 27 27 27 28 28 28 28 28 28 28 28 28 28 28 28 28
11 11 11 10 11 12 11 11 10 11 11 10 10 11 11 12 12 13 14 14 13 12 12 13 12 13 13 13 13 13 13 14 14 14 15 15 15 16 16 17 18 20 21 22 24 25 25 26 26 26 26 27 27 27 27 28 28 28 28 28 28 28 29
10 10 9 9 9 10 10 10 10 10 10 10 10 10 11 11 12 12 13 13 13 13 13 13 13 13 13 13 13 13 13 14 14 14 14 15 15 16 16 16 17 19 20 21 22 24 24 25 26 26 26 26 26 27 27 27 27 28 28 28 28 29 29
9 9 9 9 9 9 9 10 10 10 10 10 10 10 10 11 12 12 12 13 12 12 12 13 13 13 13 13 13 13 13 14 14 14 14 15 15 16 16 16 16 18 20 21 22 23 24 24 25 25 25 26 26 26 26 26 27 27 28 28 28 29 29
9 9 9 9 9 9 9 10 10 10 10 10 9 10 10 11 11 12 12 12 12 12 12 13 13 13 13 13 13 13 13 13 14 14 14 15 16 16 16 16 16 17 19 21 22 22 23 24 24 25 25 25 25 25 25 26 26 27 27 28 29 29 29
10 9 9 9 9 9 10 10 10 10 10 10 9 10 10 11 11 12 12 12 12 12 11 12 12 13 14 14 13 13 13 13 13 13 14 15 16 16 15 16 16 16 18 20 22 22 23 24 24 24 24 24 24 24 25 25 26 26 26 27 28 29 29